Regional Weather Roundup
Issued by NWS

Home | Current Version | Previous Version | Graphics & Text | Print | Product List | Glossary Off
Versions: 1 2 3 4 5 6 7 8 9 10 11 12 13 14 15 16 17 18 19 20 21 22 23 24 25 26 27 28 29 30 31 32 33 34 35 36 37 38 39 40 41 42 43 44 45 46 47 48 49 50

000
ASUS43 KLSX 220007
RWRMO

WEATHER SUMMARY FOR MISSOURI
NATIONAL WEATHER SERVICE SPRINGFIELD MO
700 PM CDT SAT OCT 21 2017

NOTE: "FAIR" INDICATES FEW OR NO CLOUDS BELOW 12,000 FEET WITH NO
       SIGNIFICANT WEATHER AND/OR OBSTRUCTIONS TO VISIBILITY.
       CURRENT SKY AND/OR WEATHER CONDITIONS ARE NOT AVAILABLE FOR
       CHILLICOTHE AND FARMINGTON.

MOZ001>031-035>038-043-044-053-054-220100-
...NORTHERN AND WESTERN MISSOURI...

CITY           SKY/WX    TMP DP  RH WIND       PRES   REMARKS
KANSAS CTY INT TSTM      63  60  90 W16G30    29.85R FOG
6HR MIN TEMP:  65; 6HR MAX TEMP:  75; 6HR PCP: TRACE;

KANSAS C DTWN  CLOUDY    75  66  73 S7        29.80R
6HR MIN TEMP:  74; 6HR MAX TEMP:  78; 6HR PCP: TRACE;

LEE`S SUMMIT   CLOUDY    75  64  68 S10       29.83R
6HR MIN TEMP:  74; 6HR MAX TEMP:  78;

ST JOSEPH      TSTM      62  62 100 S12       29.85R
6HR MIN TEMP:  61; 6HR MAX TEMP:  75; 6HR PCP:  0.99;

CHILLICOTHE      N/A     74  64  71 S8        29.83S
6HR MIN TEMP:  74; 6HR MAX TEMP:  78;

KIRKSVILLE     MOCLDY    72  64  76 S13       29.87S
6HR MIN TEMP:  72; 6HR MAX TEMP:  80;


$$
MOZ066>068-077>081-088>096-101>105-220100-
...SOUTHWEST MISSOURI...

CITY           SKY/WX    TMP DP  RH WIND       PRES   REMARKS
SPRINGFIELD    CLEAR     73  64  73 S16G28    29.91R
6HR MIN TEMP:  73; 6HR MAX TEMP:  81; 6HR PCP: TRACE;

JOPLIN         CLOUDY    75  64  68 S9        29.86S
6HR MIN TEMP:  75; 6HR MAX TEMP:  80;

BRANSON        MOCLDY    72  64  78 SE15G21   29.95F

$$
MOZ032>034-039>042-045>050-055>058-069>072-220100-
...CENTRAL MISSOURI...

CITY           SKY/WX    TMP DP  RH WIND       PRES   REMARKS
COLUMBIA       PTCLDY    74  63  68 S13       29.91R
6HR MIN TEMP:  73; 6HR MAX TEMP:  79; 6HR PCP: TRACE;

JEFFERSON CITY PTCLDY    76  61  59 S18G25    29.90
6HR MIN TEMP:  76; 6HR MAX TEMP:  79;

ROLLA          PTCLDY    71  64  78 SE12      29.96S
6HR MIN TEMP:  71; 6HR MAX TEMP:  77;

SEDALIA        CLOUDY    75  66  73 SE10      29.88R
6HR MIN TEMP:  75; 6HR MAX TEMP:  82;

WHITEMAN AFB   MOCLDY    75  64  69 S9        29.81F
WARRENSBURG    CLOUDY    72  61  68 SE7       29.84R
OSAGE BEACH    CLEAR     73  64  73 S13       29.92R

$$
MOZ051-052-059>065-220100-
...EAST CENTRAL MISSOURI...

CITY           SKY/WX    TMP DP  RH WIND       PRES   REMARKS
ST LOUIS INTL  MOCLDY    77  61  57 S12       29.98S
6HR MIN TEMP:  72; 6HR MAX TEMP:  81;

SPIRIT OF STL  MOCLDY    77  62  59 SE8       29.95F
6HR MIN TEMP:  73; 6HR MAX TEMP:  81;

ST CHARLES     CLOUDY    76  61  59 SE12      29.96S
6HR MIN TEMP:  68; 6HR MAX TEMP:  81;


$$
MOZ072>076-082>087-097>100-106>115-220100-
...SOUTH CENTRAL AND SOUTHEAST MISSOURI...

CITY           SKY/WX    TMP DP  RH WIND       PRES   REMARKS
CAPE GIRARDEAU CLEAR     74  59  59 SE10      30.04S
6HR MIN TEMP:  74; 6HR MAX TEMP:  83;

FARMINGTON     CLOUDY    75  61  61 S10       30.02R
6HR MIN TEMP:  74; 6HR MAX TEMP:  79;

POPLAR BLUFF   MOCLDY    76  61  59 SE12      30.02R
6HR MIN TEMP:  76; 6HR MAX TEMP:  83; 6HR PCP: TRACE;

WEST PLAINS    PTCLDY    72  65  78 SE7       30.01S
6HR MIN TEMP:  72; 6HR MAX TEMP:  76;


$$



USA.gov is the U.S. government's official web portal to all federal, state and local government web resources and services.